STARLINK-11281, 60996

Orbit data source: Space-Track

STARLINK-11281, 60996 is a payload satellite owned by SpaceX/Seattle (US) in LEO that was launched on Thu, 05 Sep 2024 UTC via an FALCON 9 launch vehicle from the Air Force Eastern Test Range (AFETR). Payload-class satellites include a variety of spacecraft equipped with specific instruments for various scientific and technological missions. These include communications satellites like Starlink; space stations such as the ISS; scientific satellites like the Hubble; Earth observation satellites from companies like Planet Labs, Umbra, and HawkEye 360; GPS; miniature CubeSats for education and research; and military/defense satellites.

Loading next visibility...
Identifier
60996, 2024-158G
Orbit
LEO
Country
Flag of USUS
Related business
Manufacturer
SpaceX/Seattle
Mission
Operational Commercial Communications
Bus & Motor
STARLINK V2MD, Unknown motor
Mass
960 kg wet, ~910 kg dry
Launch date (UTC)
2024-09-05 (2 years ago)
Launch vehicle
FALCON 9
Launch site
Air Force Eastern Test Range (AFETR)
Object type
Payload
Rocket body
Debris
Shape & HBR
Box + 2 Pan, 18.1 m
Radar Cross Section
36.964 m², Large (>1 m²)

Expand to show TLE details & history
Last TLE update: 19 hours ago

TLE from 19 hours ago
0 STARLINK-11281
1 60996U 24158G   26123.39141144  .00003035  00000-0  29890-4 0  9994
2 60996  53.1573  11.7886 0000744  78.3901 281.7200 15.69711689 96176
Epoch: 2026-05-03T09:23Z
TLE epoch observation values (Epoch: 2026-05-03T09:23:37.948Z)
Latitude
-0.00005°
Longitude
9.58482°
Altitude
360.535 km
Speed
7.694 km/s
True Right ascension
00h 47m 09s
True Declination
0° 00' 00"
Sunlit
Object was in daylight at epoch
Visualization orbit readout
Latitude
Unknown
Longitude
Unknown
Altitude
Unknown
Speed
Unknown
Apparent Right ascension
Unknown
Apparent Declination
Unknown
Sunlit
N/A
Visualization observer readout
Local Sidereal Time
12:30:03
Azimuth
Unknown
Elevation
Unknown
Doppler factor
Unknown
Orbital elements
Apogee altitude
360.484 km
Perigee altitude
359.482 km
Semi-major axis
6,738.12 km
Eccentricity
0.00007
Inclination
53.1573°
RAAN
11.7886°
Arg. of periapsis
78.3901°
True anomaly
281.71165°
Mean anomaly
281.72°
Eccentric anomaly
281.71583°
Mean motion
3.92405 °/min
Orbital period
91.74 mins
BSTAR
0.00002989
Loading maneuver chart data...
Computing Atmospheric mass density...
Loading historical data...
Loading historical data...
Loading historical data...
Loading historical data...
Loading historical data...
Loading historical data...
Loading historical data...

Documentation

Showing up to 5 results
|